Kezdőlap
METAR-TAF:

METAR-TAF

Repülőterek :

Eureka, Nunavut, Kanada

földrajzi szélesség: 79-59N, földrajzi hosszúság: 085-56W, magasság: 10 m

Jelenlegi meteorológiai megfigyelések

A jelentés 53 perccel ezelõtt készült, 02:00 UTC
Szélcsend
Hőmérséklet -40°C
Páratartalom 65%
Légköri nyomás 1018 hPa
Látótávolság: 24.1 km
Derült ég

METAR: CWEU 280200Z 00000KT 15SM SKC M40/M44 A3005 RMK SLP180

Idő: 20:53 (02:53 UTC)


TAF: hiányzik

Meteorológiai megfigyelések és előrejelzések több, mint 4000 repülőtéren (METAR és TAF jelentéseket).

A térképen piros és sárga pontok jelzik az elérhető meteorológiai állomásokat.

Mozgassa az egeret a pont fölött, hogy megjelenjen az állomás neve.

Azután kattintson az időjárási megfigyelések és előrejelzések megtekintéséhez.

A térkép megváltoztatása: kattintson a fekete keresztel jelölt zöld gombra ráközelítéshez, a vonallal jelölt zöld gombra távolításhoz, vagy a zöld nyilakra a szomszédos térképek eléréséhez.


METAR-TAF: